This is the latest recevied weather packets stored in our database for station/object KD4EG. If no packets are shown the sender has not sent any weather packets the latest 10 day(s).
| Time | Temp. | Humidity | Pressure | Rain* | Wind** | Luminosity | Snow |
|---|---|---|---|---|---|---|---|
| 1788124359 | 31.11° C | 66% | 1021.6 hPa | 0 mm | - | 337 W/m² | - |
| 1788124056 | 31.11° C | 65% | 1021.7 hPa | 0 mm | - | 185 W/m² | - |
| 1788123755 | 30.56° C | 66% | 1021.9 hPa | 0 mm | - | 348 W/m² | - |
| 1788123452 | 31.11° C | 65% | 1022 hPa | 0 mm | - | 162 W/m² | - |
| 1788123147 | 31.67° C | 63% | 1021.8 hPa | 0 mm | - | 87 W/m² | - |
| 1788122842 | 31.67° C | 63% | 1021.9 hPa | 0 mm | - | 360 W/m² | - |
| 1788122541 | 31.67° C | 64% | 1021.9 hPa | 0 mm | - | 192 W/m² | - |
| 1788122238 | 31.67° C | 64% | 1022 hPa | 0 mm | - | 413 W/m² | - |
| 1788121933 | 31.11° C | 65% | 1021.8 hPa | 0 mm | - | 417 W/m² | - |
| 1788121632 | 30.56° C | 66% | 1022.2 hPa | 0 mm | - | 159 W/m² | - |
| 1788121328 | 30.56° C | 66% | 1022.4 hPa | 0 mm | - | 158 W/m² | - |
| 1788121027 | 30.56° C | 65% | 1021.9 hPa | 0 mm | - | 220 W/m² | - |
| 1788120723 | 30° C | 67% | 1022 hPa | 0 mm | - | 290 W/m² | - |
| 1788120418 | 30° C | 67% | 1022.4 hPa | 0 mm | - | 142 W/m² | - |
| 1788120117 | 30.56° C | 66% | 1022.3 hPa | 0 mm | - | 156 W/m² | - |
| 1788119813 | 30° C | 65% | 1022.2 hPa | 0 mm | - | 545 W/m² | - |
| 1788119510 | 30.56° C | 65% | 1022.3 hPa | 0 mm | - | 127 W/m² | - |
| 1788119210 | 30° C | 66% | 1022.6 hPa | 0 mm | - | 564 W/m² | - |
| 1788118910 | 30° C | 65% | 1022.4 hPa | 0 mm | - | 121 W/m² | - |
| 1788118604 | 30° C | 65% | 1022.5 hPa | 0 mm | - | 144 W/m² | - |
| 1788118299 | 30.56° C | 64% | 1022.7 hPa | 0 mm | - | 140 W/m² | - |
| 1788117994 | 30.56° C | 63% | 1022.7 hPa | 0 mm | - | 128 W/m² | - |
| 1788117689 | 30.56° C | 63% | 1022.6 hPa | 0 mm | - | 162 W/m² | - |
| 1788117385 | 30.56° C | 63% | 1022.7 hPa | 0 mm | - | 133 W/m² | - |
| 1788117080 | 30.56° C | 62% | 1023 hPa | 0 mm | - | 116 W/m² | - |
* Rain latest hour (hover to see other rain measurements)
** Current wind speed in m/s (hover to see current wind gust speed)